Regional Weather Roundup
Issued by NWS

Home | Current Version | Previous Version | Graphics & Text | Print | Product List | Glossary On
Versions: 1 2 3 4 5 6 7 8 9 10 11 12 13 14 15 16 17 18 19 20 21 22 23 24 25 26 27 28 29 30 31 32 33 34 35 36 37 38 39 40 41 42 43 44 45 46 47 48 49 50
000
ASUS43 KMKX 220811
RWRWI

WISCONSIN REGIONAL WEATHER ROUNDUP
NATIONAL WEATHER SERVICE MILWAUKEE/SULLIVAN WI
300 AM CDT WED OCT 22 2014

NOTE: "FAIR" INDICATES FEW OR NO CLOUDS BELOW 12,000 FEET WITH NO
SIGNIFICANT WEATHER AND/OR OBSTRUCTIONS TO VISIBILITY.

WIZ001-002-006>008-014>016-023>028-220900-
NORTHWEST WISCONSIN

CITY           SKY/WX    TMP DP  RH WIND       PRES   REMARKS
SUPERIOR ARPT  CLEAR     29  29  99 CALM      30.21S
ASHLAND        PTCLDY    27  26  96 CALM      30.24F
HAYWARD        CLEAR     42  34  73 S8        30.22S
SIREN          CLEAR     42  35  75 SE10      30.21R
CUMBERLAND     CLEAR     37  32  81 SE7       30.23S WCI  32
RICE LAKE      CLEAR     37  34  88 SE5       30.25S WCI  33
CHETEK         CLEAR     37  34  90 SE3       30.25R
LADYSMITH      CLEAR     35  33  93 SE5       30.28S WCI  31
EAU CLAIRE     CLEAR     39  33  79 S7        30.25S WCI  34
MENOMONIE      CLEAR     36  33  90 E6        30.24S WCI  31
NEW RICHMOND   CLEAR     40  35  83 SE6       30.21S
OSCEOLA        CLEAR     42  37  80 SE9       30.23S
$$

WIZ003>005-009-010-017-018-220900-
NORTH CENTRAL WISCONSIN

CITY           SKY/WX    TMP DP  RH WIND       PRES   REMARKS
MANITOWISH WTR CLEAR     33  32  96 S6        30.27S WCI  27
ARBOR VITAE    CLEAR     37  33  88 SE5       30.28R WCI  33
WOODRUFF       CLEAR     37  33  88 SE5       30.28R WCI  33
RHINELANDER    CLEAR     29  27  92 SE5       30.30R WCI  24
EAGLE RIVER    CLEAR     28  28  98 CALM      30.29S
LAND O LAKES   CLEAR     24  24  97 CALM      30.30S
PHILLIPS       CLEAR     32  32  97 CALM      30.27R
TOMAHAWK       CLEAR     30  29  96 CALM      30.30S
MEDFORD        CLEAR     33  32  96 SE3       30.28S
MERRILL        PTCLDY    29  29  99 CALM      30.30S
$$

WIZ029-030-035-036-043>047-220900-
CENTRAL WISCONSIN

CITY           SKY/WX    TMP DP  RH WIND       PRES   REMARKS
WAUSAU         CLEAR     31  29  92 E6        30.30R WCI  25
MOSINEE        PTCLDY    32  32 100 E5        30.31S WCI  27
MARSHFIELD     PTCLDY    32  30  92 E6        30.29R WCI  26
STEVENS POINT  PTCLDY    25  24  97 CALM      30.31S
WAUPACA        CLEAR     31  30  96 CALM      30.33R
WAUTOMA        PTCLDY    26  25  96 CALM      30.32S
WISC RAPIDS    PTCLDY    29  28  96 CALM      30.32R
CAMP DOUGLAS   PTCLDY    25  25 100 E5        30.30S WCI  19
$$

WIZ011>013-019>022-031-037>040-048>050-220900-
NORTHEAST WISCONSIN

CITY           SKY/WX    TMP DP  RH WIND       PRES   REMARKS
ANTIGO         PTCLDY    31  29  95 CALM      30.31R
SHAWANO        CLEAR     34  32  91 N5        30.34R WCI  30
OCONTO         CLEAR     31  31 100 CALM      30.34R
STURGEON BAY   CLEAR     36  30  80 CALM      30.33R
GREEN BAY      PTCLDY    32  30  92 CALM      30.33R
MANITOWOC      CLEAR     31  30  96 CALM      30.33R
APPLETON       CLEAR     34  32  93 N5        30.32S WCI  30
CLINTONVILLE   PTCLDY    32  30  93 NE3       30.33R
OSHKOSH        PTCLDY    33  30  88 CALM      30.31S
$$

WIZ032>034-041-042-053>061-220900-
SOUTHWEST WISCONSIN

CITY           SKY/WX    TMP DP  RH WIND       PRES   REMARKS
LA CROSSE      CLEAR     39  35  86 SE5       30.28R
SPARTA         CLEAR     26  26  97 CALM      30.30S
VIROQUA        CLEAR     35  35 100 SE3       30.27R
BOSCOBEL       FOG       34  32  92 CALM      30.30S VSB 1/4
PRAIRIE DU CHI CLEAR     37  35  92 CALM      30.29R
PLATTEVILLE    CLEAR     35  33  93 E6        30.30R WCI  30
$$

WIZ056-057-062-063-064-067-068-220900-
SOUTH CENTRAL WISCONSIN

CITY           SKY/WX    TMP DP  RH WIND       PRES   REMARKS
REEDSBURG      CLEAR     30  30  98 CALM      30.30S
BARABOO/DELLS  CLEAR     29  28  96 CALM      30.30R
LONE ROCK      FOG       33  29  85 CALM      30.31R VSB 1/4
MINERAL POINT  CLEAR     37  34  87 E5        30.29R WCI  34
MADISON        CLEAR     29  28  96 CALM      30.30S FOG
MIDDLETON        N/A     30  30 100 CALM      30.30S
WATERTOWN      PTCLDY    27  27 100 CALM      30.30S FOG
MONROE         PTCLDY    36  36 100 E3        30.28S
JANESVILLE     PTCLDY    32  32 100 CALM      30.30R
$$

WIZ051-052-058>065-066-070>072-220900-
SOUTHEAST WISCONSIN

CITY           SKY/WX    TMP DP  RH WIND       PRES   REMARKS
MILWAUKEE      PTCLDY    37  33  85 NW6       30.30R WCI  32
WAUKESHA       CLEAR     32  30  93 CALM      30.31S
MILWAUKEE/TIMM CLEAR     32  30  93 CALM      30.31R
RACINE         PTCLDY    35  33  92 NW3       30.30R
BURLINGTON     CLEAR     28  28 100 CALM      30.30R FOG
KENOSHA        CLEAR     35  33  92 NW5       30.29R WCI  31
FOND DU LAC    PTCLDY    30  27  88 CALM      30.32R
SHEBOYGAN      PTCLDY    29  28  96 CALM      30.31R
WEST BEND      PTCLDY    30  28  93 CALM      30.30S
JUNEAU         FOG       32  32  99 CALM      30.32R VSB 1/4
$$

LSZ147-162-220900-
LAKE SUPERIOR

STATION/POSITION TIME  TEMP    WIND        PRES    WAVE
                       AIR SEA DIR/SP/G            HT/PER
                 (UTC) (F)     (DEG/KT/KT) (MB)    (FT/S)
W MID LAKE BUOY  0750   45 46  160/ 14/ 17 1024.9F   3/ 4
DEVILS ISLAND    0800   45     140/  5/  6 1024.6S
PORT WING        0700   40     150/  2/  5 1023.0
SAXON HARBOR     0700   31        CALM     1024.0F
$$

LMZ867-665-643>646-220900-
LAKE MICHIGAN

STATION/POSITION TIME  TEMP    WIND        PRES    WAVE
                       AIR SEA DIR/SP/G            HT/PER
                 (UTC) (F)     (DEG/KT/KT) (MB)    (FT/S)
CHAMBERS ISLAND  0700   37     120/  2/  4 1027.1R
N MID LAKE BUOY  0750   45 51  140/  8/ 10 1027.6R   1/ 4
NORTHPORT PIER   0700   46     120/  5/  9 1026.8R
SISTER BAY       0612          120/  5/  7   N/A
KEWAUNEE LAKESHO 0700   35     300/  1/  2 1025.4R
SHEBOYGAN LAKESH 0800   46 49  110/ 11/ 12 1027.0R
PORT WASHINGTON  0700   38     290/  3/  5 1026.4
ATWATER BUOY     0800   49      90/  8/ 10 1026.7R
MILWAUKEE LAKESH 0700   48      60/  8/ 10   N/A
S MID LAKE BUOY  0750   48 54  110/ 16/ 17 1025.6R   4/ 5
KENOSHA   LAKESH 0800   40     300/  4/  6 1025.4R
$$

TC  - TEMPERATURE IN CELSIUS
VSB - VISIBILITY IN STATUTE MILES
WCI - WIND CHILL INDEX
HX  - HEAT INDEX




USA.gov is the U.S. government's official web portal to all federal, state and local government web resources and services.